Skip Page Navigation
NASA JPL Caltech
NASA Logo - Jet Propulsion Laboratory + View the NASA Portal
+ Center for Near-Earth Object Studies
JPL Home Earth Solar System Stars & Galaxies Technology
JPL Solar System Dynamics
BODIES ORBITS EPHEMERIDES TOOLS PHYSICAL DATA DISCOVERY FAQ SITE MAP
IMPORTANT: The SSD Announcement email list is now available. Major changes are coming in the near future, including possible hostname and/or URL changes. To be notified of such changes, subscribe to this email list.

Please visit this page for more details.


JPL Small-Body Database Browser
Search: [ help ]  
27465 Cambroziak (2000 GB62)
Classification: Main-belt Asteroid          SPK-ID: 2027465
Ephemeris | Orbit Diagram | Orbital Elements | Mission Design | Physical Parameters | Discovery Circumstances | Close-Approach Data ]

[ show orbit diagram ]
Orbital Elements at Epoch 2458600.5 (2019-Apr-27.0) TDB
Reference: JPL 23 (heliocentric ecliptic J2000)
 Element Value Uncertainty (1-sigma)   Units 
e .03001249405328324 3.2697e-08  
a 2.652680237353314 1.194e-08 au
q 2.573066687504486 8.559e-08 au
i 3.542400997356962 4.0787e-06 deg
node 55.87837852796435 5.8179e-05 deg
peri 214.7448412094072 9.0805e-05 deg
M 82.69635376543407 7.0845e-05 deg
tp 2458237.998640173175
(2018-Apr-29.49864017)
0.00031026 TDB
period 1578.068241168383
4.32
1.0655e-05
2.917e-08
d
yr
n .2281270166957167 1.5403e-09 deg/d
Q 2.732293787202142 1.2299e-08 au
  Orbit Determination Parameters
   # obs. used (total)      1432  
   data-arc span      8574 days (23.47 yr)  
   first obs. used      1996-06-13  
   last obs. used      2019-12-04  
   planetary ephem.      DE431  
   SB-pert. ephem.      SB431-N16  
   condition code      0  
   norm. resid. RMS      .51577  
   source      ORB  
   producer      Otto Matic  
   solution date      2019-Dec-14 01:38:16  

Additional Information
 Earth MOID = 1.55749 au 
 Jupiter MOID = 2.27557 au 
 T_jup = 3.386 
[ show covariance matrix ]

Ephemeris | Orbit Diagram | Orbital Elements | Mission Design | Physical Parameters | Discovery Circumstances | Close-Approach Data ]

Physical Parameter Table
Parameter Symbol Value Units Sigma Reference Notes
absolute magnitude H 14.6   n/a MPO412381  
diameter diameter 3.540 km 0.450 urn:nasa:pds:neowise_diameters_albedos::2.0[mainbelt] (http://adsabs.harvard.edu/abs/2011ApJ...741...68M)  
geometric albedo albedo 0.245   0.041 urn:nasa:pds:neowise_diameters_albedos::2.0[mainbelt] (http://adsabs.harvard.edu/abs/2011ApJ...741...68M)  

27465 Cambroziak           Discovered 2000 Apr. 5 by the Lincoln Laboratory Near-Earth Asteroid Research Team at Socorro.
Carole Ambroziak mentored a finalist in the 2011 Broadcom MASTERS, a math and science competition for middle-school students. She teaches at the Doolen Middle School, Tucson, Arizona.
NOTE: some special characters may not display properly (any characters within {} are an attempt to place the proper accent above a character)
Reference: 20111210/MPCPages.arcLast Updated: 2011-12-12

[ show close-approach data ]
Alternate Designations
 2000 GB62 = 1996 LN1 
Ephemeris | Orbit Diagram | Orbital Elements | Mission Design | Physical Parameters | Discovery Circumstances | Close-Approach Data ]
ABOUT SSD CREDITS/AWARDS PRIVACY/COPYRIGHT GLOSSARY LINKS
FirstGov 2019-Dec-14 17:19 UT
(server date/time)  
NASA Home Page
Site Manager:   Ryan S. Park
Webmaster  Alan B. Chamberlin